User: anonymous   Login
Location: Saluda
(35.2377°N, 82.3468°W)
Time: 16:14:41
(UTC+00:00)
Language:

Tiros 1 - Orbit

View from above orbital plane
View from above orbital plane
View from above satellite
View from above satellite

Ground track
Ground track

The orbit data is extracted from the following two-line orbital elements,

1 00029U 60002B   22268.66613858  .00000338  00000-0  80633-4 0  9990
2 00029  48.3811 349.8315 0024120 186.4279 173.6327 14.74739673341050
Epoch (UTC): 25 September 2022 15:59:14
Eccentricity: 0.0024120
inclination: 48.3811°
perigee height: 629 km
apogee height: 663 km
right ascension of ascending node: 349.8315°
argument of perigee: 186.4279°
revolutions per day: 14.74739673
mean anomaly at epoch: 173.6327°
orbit number at epoch: 34105

The dashed part of the orbit path shows where the satellite is in the earth's shadow,  

DLR